Regional Weather Roundup
Issued by NWS

Home | Current Version | Previous Version | Graphics & Text | Print | Product List | Glossary On
Versions: 1 2 3 4 5 6 7 8 9 10 11 12 13 14 15 16 17 18 19 20 21 22 23 24 25 26 27 28 29 30 31 32 33 34 35 36 37 38 39 40 41 42 43 44 45 46 47 48 49 50
000
ASUS43 KDMX 191407
RWRIA

WEATHER ROUNDUP FOR IOWA
NATIONAL WEATHER SERVICE DES MOINES IA
900 AM CDT TUE AUG 19 2014

NOTE: "FAIR" INDICATES FEW OR NO CLOUDS BELOW 12,000 FEET WITH NO
SIGNIFICANT WEATHER AND/OR OBSTRUCTIONS TO VISIBILITY.

* - THESE STATIONS ARE NOT NWS STATIONS...THUS NOT UNDER NWS
QUALITY CONTROL.  THEY ALSO DO NOT REPORT WEATHER SUCH
AS PRECIPITATION OR FOG.

IAZ001>003-012>014-020>022-031>034-043>046-191500-
   NORTHWEST IOWA

CITY           SKY/WX    TMP DP  RH WIND       PRES   REMARKS
CARROLL *      SUNNY     72  64  78 NW6       29.81R
CHEROKEE *     SUNNY     66  64  94 SW3       29.83R
DENISON *      SUNNY     70  66  88 SW3       29.81R
LE MARS *      SUNNY     68  64  88 VRB3      29.83R
ORANGE CITY *  SUNNY     68  63  83 W3        29.83R
SHELDON *      SUNNY     68  66  94 NW5       29.81R
SIOUX CITY     SUNNY     71  63  75 NW5       29.83R
SPENCER        SUNNY     69  64  84 W8        29.80S
STORM LAKE *   SUNNY     68  68 100 W8        29.83R
$$

IAZ055>058-069>071-079>083-090>094-191500-
   SOUTHWEST IOWA

CITY           SKY/WX    TMP DP  RH WIND       PRES   REMARKS
ATLANTIC *     SUNNY     73  68  83 NW6       29.82S
AUDUBON *      SUNNY     73  70  88 SW3       29.83S
CLARINDA *     SUNNY     73  70  88 CALM      29.84R
COUNCIL BLFS * SUNNY     73  70  88 CALM      29.82S
CRESTON *      SUNNY     72  70  94 CALM      29.83S
HARLAN  *      SUNNY     72  68  88 CALM      29.86S
LAMONI         PTSUNNY   74  71  91 W5        29.81S
RED OAK *      SUNNY     75  70  83 CALM      29.83R
SHENANDOAH *   SUNNY     72  68  88 SW6       29.83S
$$

IAZ047>049-059>061-072>074-084-191500-
   CENTRAL IOWA

CITY           SKY/WX    TMP DP  RH WIND       PRES   REMARKS
AMES           SUNNY     73  66  78 NW7       29.79R
ANKENY *       SUNNY     73  68  83 VRB3      29.80R
CHARITON *     SUNNY     75  72  88 W5        29.80S
DES MOINES     MOSUNNY   74  67  78 W5        29.79S
GRINNELL*      MOSUNNY   72  68  88 W6        29.79S
KNOXVILLE *    SUNNY     73  70  88 W7        29.79R
MARSHALLTOWN   SUNNY     71  66  84 W6        29.78R
PELLA *        MOSUNNY   73  70  88 W5        29.80S
PERRY *          N/A     72  66  83 NW3       29.81S
$$

IAZ004>006-015-016-023>025-035-036-191500-
   NORTH CENTRAL IOWA

CITY           SKY/WX    TMP DP  RH WIND       PRES   REMARKS
ALGONA *       SUNNY     70  64  83 NW7       29.80R
CLARION *      SUNNY     68  66  94 NW7       29.79R
ESTHERVILLE    SUNNY     68  64  87 NW7       29.79R
FORT DODGE *   SUNNY     70  64  83 W5        29.81R
MASON CITY     CLOUDY    67  64  90 NW8       29.80R
FOREST CITY *  CLOUDY    68  68 100 W5        29.79R
IOWA FALLS *     N/A     70  64  83 NW8       29.79S
$$

IAZ007>011-017>019-026>030-037>042-050>054-066-191500-
   NORTHEAST IOWA

CITY           SKY/WX    TMP DP  RH WIND       PRES   REMARKS
CEDAR RAPIDS   MOSUNNY   73  69  87 W10       29.75S
CHARLES CITY * CLOUDY    66  66 100 NW9       29.78R FOG
CLINTON *      CLOUDY    73  70  88 NW9       29.76S
DECORAH *      CLOUDY    66  64  94 VRB6      29.75R FOG
DUBUQUE        PTSUNNY   71  68  90 W7        29.74R
MONTICELLO *   MOSUNNY   73  70  88 NW9       29.74S
OELWEIN *      MOSUNNY   70  66  88 W7        29.77R
WATERLOO       MOSUNNY   71  66  84 VRB5      29.75R
$$

IAZ064-065-067-068-078-191500-
   EAST CENTRAL IOWA

CITY           SKY/WX    TMP DP  RH WIND       PRES   REMARKS
DAVENPORT      PTSUNNY   74  69  85 W14       29.74F
IOWA CITY      MOSUNNY   76  71  85 W8        29.76S
MT. PLEASANT * CLOUDY    73  70  88 W14G20    29.77F
MUSCATINE *    SUNNY     75  70  83 W13       29.75S
QUAD CITIES    PTSUNNY   76  69  79 W14       29.73S
$$

IAZ062-063-075>077-085>089-095>099-191500-
   SOUTHEAST IOWA

CITY           SKY/WX    TMP DP  RH WIND       PRES   REMARKS
BURLINGTON     TSTM      71  71 100 S12       29.79R
FAIRFIELD *    MOSUNNY   73  72  94 W7        29.78S
FORT MADISON * RAIN      72  72 100 SW9       29.82R
KEOKUK *       LGT RAIN  70  66  88 SW15G28   29.80R
OSKALOOSA *      N/A     73  72  94 W7        29.79S
CENTERVILLE *  SUNNY     72  70  94 W6        29.81F
OTTUMWA        PTSUNNY   73  70  90 W6        29.78R
WASHINGTON *   SUNNY     73  72  94 W9G15     29.76F
$$

ABBREVIATIONS USED IN REMARKS
   TC - TEMPERATURES IN CELSIUS
  WCI - WIND CHILL INDEX
   HX - HEAT INDEX
  VSB - VISIBILITY
$$




USA.gov is the U.S. government's official web portal to all federal, state and local government web resources and services.